| time (UTC) | temp F | wind direction | speed knots | gust knots | rain 1hr in | rain 24hr in | rain mn in | humidity % | barometer mb |
| 20260502123043 | 51 | 188 | 0.0 | 0.0 | 0.00 | 0.00 | 0.00 | 73 | 1019.8 |
| 20260502121541 | 50 | 188 | 0.0 | 0.0 | 0.00 | 0.00 | 0.00 | 74 | 1019.5 |
| 20260502114600 | 49 | 189 | 0.0 | 0.0 | 0.00 | 0.00 | 0.00 | 75 | 1019.2 |
| 20260502113043 | 50 | 189 | 0.0 | 0.0 | 0.00 | 0.00 | 0.00 | 76 | 1019.1 |
| 20260502111536 | 50 | 68 | 0.0 | 0.0 | 0.00 | 0.00 | 0.00 | 75 | 1019.3 |
| 20260502110034 | 50 | 38 | 0.0 | 0.0 | 0.00 | 0.00 | 0.00 | 72 | 1019.3 |
| 20260502104532 | 51 | 38 | 0.0 | 0.0 | 0.00 | 0.00 | 0.00 | 71 | 1019.6 |
| 20260502103030 | 51 | 34 | 0.9 | 3.5 | 0.00 | 0.00 | 0.00 | 69 | 1019.8 |
| 20260502101526 | 54 | 274 | 0.0 | 2.6 | 0.00 | 0.00 | 0.00 | 62 | 1019.6 |
| 20260502091519 | 54 | 266 | 1.7 | 3.5 | 0.00 | 0.00 | 0.00 | 62 | 1018.4 |
| 20260502071512 | 54 | 190 | 0.9 | 2.6 | 0.00 | 0.00 | 0.00 | 64 | 1018.3 |
| 20260502070011 | 54 | 176 | 0.9 | 2.6 | 0.00 | 0.00 | 0.00 | 63 | 1018.2 |
| 20260502064514 | 54 | 172 | 0.0 | 1.7 | 0.00 | 0.00 | 0.00 | 63 | 1018.5 |
| 20260502063011 | 55 | 172 | 0.0 | 0.9 | 0.00 | 0.00 | 0.00 | 62 | 1018.5 |
| 20260502061505 | 55 | 172 | 0.0 | 0.9 | 0.00 | 0.00 | 0.00 | 61 | 1018.6 |
| 20260502060104 | 55 | 103 | 0.0 | 0.0 | 0.00 | 0.00 | 0.00 | 60 | 1018.5 |
| 20260502054506 | 55 | 103 | 0.0 | 0.9 | 0.00 | 0.00 | 0.00 | 60 | 1018.6 |
| 20260502053001 | 55 | 103 | 0.0 | 0.9 | 0.00 | 0.00 | 0.00 | 60 | 1018.5 |
| 20260502051559 | 56 | 103 | 0.0 | 0.0 | 0.00 | 0.00 | 0.00 | 59 | 1018.5 |
| 20260502050056 | 56 | 103 | 0.0 | 0.0 | 0.00 | 0.00 | 0.00 | 58 | 1018.4 |
| 20260502044610 | 56 | 34 | 0.0 | 0.0 | 0.00 | 0.00 | 0.00 | 58 | 1018.4 |
| 20260502043124 | 56 | 34 | 0.0 | 0.0 | 0.00 | 0.00 | 0.00 | 57 | 1018.4 |
| 20260502041601 | 56 | 34 | 0.0 | 0.0 | 0.00 | 0.00 | 0.00 | 57 | 1018.4 |
| 20260502040057 | 56 | 34 | 0.0 | 0.0 | 0.00 | 0.00 | 0.00 | 56 | 1018.4 |
| 20260502034554 | 57 | 34 | 0.0 | 0.0 | 0.00 | 0.00 | 0.00 | 55 | 1018.2 |
| 20260502033054 | 57 | 34 | 0.0 | 0.0 | 0.00 | 0.00 | 0.00 | 53 | 1018.1 |
| 20260502031552 | 58 | 34 | 0.0 | 0.0 | 0.00 | 0.00 | 0.00 | 52 | 1017.9 |
| 20260502030056 | 59 | 34 | 0.0 | 0.0 | 0.00 | 0.00 | 0.00 | 50 | 1017.8 |
| 20260502024552 | 59 | 34 | 0.0 | 0.0 | 0.00 | 0.00 | 0.00 | 48 | 1017.6 |
| 20260502023056 | 60 | 34 | 0.0 | 0.0 | 0.00 | 0.00 | 0.00 | 48 | 1017.6 |
| 20260502021554 | 61 | 34 | 0.0 | 0.0 | 0.00 | 0.00 | 0.00 | 47 | 1017.4 |
| 20260502020050 | 61 | 34 | 0.0 | 0.0 | 0.00 | 0.00 | 0.00 | 45 | 1017.3 |
| 20260502014550 | 62 | 34 | 0.0 | 0.0 | 0.00 | 0.00 | 0.00 | 41 | 1017.1 |
| 20260502013057 | 64 | 34 | 0.0 | 0.0 | 0.00 | 0.00 | 0.00 | 38 | 1016.9 |
| 20260502011557 | 64 | 34 | 0.0 | 0.9 | 0.00 | 0.00 | 0.00 | 38 | 1016.7 |
| 20260502010054 | 65 | 33 | 0.0 | 0.0 | 0.00 | 0.00 | 0.00 | 37 | 1016.5 |
| 20260502004549 | 65 | 56 | 0.9 | 2.6 | 0.00 | 0.00 | 0.00 | 35 | 1016.4 |
| 20260502003049 | 66 | 43 | 0.9 | 3.5 | 0.00 | 0.00 | 0.00 | 34 | 1016.3 |
| 20260502001547 | 66 | 34 | 0.9 | 3.5 | 0.00 | 0.00 | 0.00 | 33 | 1016.3 |
| 20260502000047 | 67 | 340 | 0.9 | 5.2 | 0.00 | 0.00 | 0.00 | 34 | 1016.2 |
| 20260501234546 | 67 | 51 | 1.7 | 4.3 | 0.00 | 0.00 | 0.00 | 35 | 1016.2 |
| 20260501233046 | 68 | 24 | 1.7 | 3.5 | 0.00 | 0.00 | 0.00 | 33 | 1016.0 |
| 20260501231545 | 68 | 5 | 1.7 | 4.3 | 0.00 | 0.00 | 0.00 | 34 | 1015.9 |
| 20260501230044 | 68 | 43 | 1.7 | 4.3 | 0.00 | 0.00 | 0.00 | 34 | 1015.7 |
| 20260501224544 | 68 | 25 | 2.6 | 7.8 | 0.00 | 0.00 | 0.00 | 32 | 1015.7 |
| 20260501223043 | 69 | 21 | 0.9 | 4.3 | 0.00 | 0.00 | 0.00 | 32 | 1015.5 |
| 20260501221542 | 69 | 38 | 2.6 | 7.0 | 0.00 | 0.00 | 0.00 | 32 | 1015.5 |
| 20260501220041 | 69 | 38 | 0.9 | 7.0 | 0.00 | 0.00 | 0.00 | 34 | 1015.5 |
| 20260501214539 | 69 | 91 | 0.0 | 5.2 | 0.00 | 0.00 | 0.00 | 35 | 1015.5 |
| 20260501213038 | 69 | 15 | 1.7 | 6.1 | 0.00 | 0.00 | 0.00 | 37 | 1015.6 |
| 20260501211538 | 69 | 9 | 1.7 | 5.2 | 0.00 | 0.00 | 0.00 | 38 | 1015.7 |
| 20260501210037 | 68 | 60 | 2.6 | 7.0 | 0.00 | 0.00 | 0.00 | 35 | 1016.0 |
| 20260501204545 | 69 | 34 | 0.9 | 4.3 | 0.00 | 0.00 | 0.00 | 35 | 1016.0 |
| 20260501203032 | 69 | 65 | 1.7 | 6.1 | 0.00 | 0.00 | 0.00 | 35 | 1016.2 |
| 20260501201530 | 69 | 34 | 2.6 | 7.0 | 0.00 | 0.00 | 0.00 | 35 | 1016.4 |
| 20260501200029 | 70 | 30 | 2.6 | 6.1 | 0.00 | 0.00 | 0.00 | 36 | 1016.6 |
| 20260501194528 | 69 | 352 | 0.9 | 7.8 | 0.00 | 0.00 | 0.00 | 39 | 1016.8 |
| 20260501193025 | 68 | 37 | 1.7 | 5.2 | 0.00 | 0.00 | 0.00 | 39 | 1017.0 |
| 20260501191534 | 70 | 14 | 3.5 | 6.1 | 0.00 | 0.00 | 0.00 | 38 | 1017.1 |
| 20260501190022 | 68 | 20 | 2.6 | 7.0 | 0.00 | 0.00 | 0.00 | 40 | 1017.3 |
| 20260501184537 | 67 | 48 | 1.7 | 7.0 | 0.00 | 0.00 | 0.00 | 44 | 1017.5 |
| 20260501183025 | 68 | 5 | 1.7 | 5.2 | 0.00 | 0.00 | 0.00 | 44 | 1017.6 |
| 20260501181519 | 69 | 67 | 1.7 | 6.1 | 0.00 | 0.00 | 0.00 | 44 | 1018.0 |
| 20260501180015 | 67 | 80 | 1.7 | 5.2 | 0.00 | 0.00 | 0.00 | 46 | 1018.2 |
| 20260501174516 | 67 | 74 | 1.7 | 5.2 | 0.00 | 0.00 | 0.00 | 47 | 1018.5 |
| 20260501173013 | 66 | 80 | 0.9 | 4.3 | 0.00 | 0.00 | 0.00 | 52 | 1018.5 |
| 20260501171511 | 66 | 71 | 0.9 | 4.3 | 0.00 | 0.00 | 0.00 | 54 | 1018.5 |
| 20260501170011 | 67 | 21 | 0.9 | 5.2 | 0.00 | 0.00 | 0.00 | 54 | 1018.5 |
| 20260501164508 | 66 | 20 | 0.9 | 5.2 | 0.00 | 0.00 | 0.00 | 55 | 1018.5 |
| 20260501163008 | 65 | 28 | 1.7 | 5.2 | 0.00 | 0.00 | 0.00 | 56 | 1018.4 |
| 20260501161504 | 64 | 354 | 1.7 | 4.3 | 0.00 | 0.00 | 0.00 | 56 | 1018.4 |
| 20260501154603 | 64 | 109 | 1.7 | 6.1 | 0.00 | 0.00 | 0.00 | 59 | 1018.1 |
| 20260501153057 | 63 | 82 | 1.7 | 7.0 | 0.00 | 0.00 | 0.00 | 60 | 1018.1 |
| 20260501151601 | 62 | 68 | 1.7 | 5.2 | 0.00 | 0.00 | 0.00 | 63 | 1018.1 |
| 20260501150051 | 61 | 68 | 1.7 | 5.2 | 0.00 | 0.00 | 0.00 | 66 | 1018.1 |